Flag for Belarus Weather past 2 weeks in Barysaw, Belarus

Now
52 °F

Clear.


Feels Like: 51 °F
Forecast: 55 / 74 °F
Wind: 3 mph from Northwest

Location: Minsk

Current Time: Jul 2, 2015 at 2:47:48 AM

Latest Report: Jul 2, 2015 at 2:00 AM


Visibility: 10 mi

Pressure: 30.18 "Hg

Humidity: 94%

Dew point: 50 °F

Location of BarysawLocation

Historic Weather in Barysaw — Graph

°F

Barysaw temperature yesterday

Maximum temperature yesterday: 72 °F (at 4:30 PM)
Minimum temperature yesterday: 50 °F (at 3:30 AM)
Average temperature yesterday: 61 °F

Past Weeks' High & Low Weather Summary

 TemperatureHumidityPressure
High77 °F (Jun 30, 4:30 PM)100% (Jun 18, 2:30 AM)30.18 "Hg (Jun 18, 2:30 AM)
Low43 °F (Jun 18, 2:30 AM)29% (Jun 29, 4:30 PM)29.80 "Hg (Jun 19, 8:00 AM)
Average61 °F64%29.96 "Hg
* Reported Jun 17 1:00 AM — Jul 2 1:30 AM, Barysaw, Weather by CustomWeather, © 2015

Note: Actual official high and low records may vary slightly from our data, if they occured in-between our weather recording intervals... More about our weather records

Advertising

Barysaw weather history for previous 24 hours

 ConditionsComfort  
Time TempWeatherWind HumidityBarometerVisibility
1:30 AM
Thu, Jul 2
54 °FClear.6 mph88%30.18 "Hg10 mi
1:00 AM54 °FClear.6 mph94%30.18 "Hg10 mi
12:00 AM54 °FClear.3 mph94%30.18 "Hg10 mi
11:30 PM
Wed, Jul 1
55 °FClear.3 mph88%30.18 "Hg10 mi
11:00 PM54 °FClear.3 mph94%30.15 "Hg10 mi
10:30 PM55 °FSunny.3 mph88%30.15 "Hg10 mi
10:00 PM57 °FSunny.6 mph82%30.15 "Hg10 mi
9:30 PM59 °FSunny.6 mph77%30.15 "Hg10 mi
9:00 PM61 °FPartly sunny.6 mph72%30.12 "HgN/A
8:30 PM61 °FBroken clouds.8 mph72%30.12 "HgN/A
8:00 PM63 °FSprinkles. Partly sunny.6 mph59%30.12 "HgN/A
7:56 PM64 °FSprinkles. Partly sunny.6 mph56%30.12 "HgN/A
7:30 PM64 °FBroken clouds.13 mph56%30.12 "HgN/A
7:00 PM68 °FBroken clouds.13 mph56%30.09 "HgN/A
6:30 PM70 °FBroken clouds.17 mph53%30.09 "HgN/A
6:00 PM70 °FBroken clouds.13 mph57%30.07 "HgN/A
5:30 PM68 °FBroken clouds.8 mph64%30.09 "HgN/A
5:00 PM70 °FBroken clouds.10 mph53%30.07 "HgN/A
4:30 PM72 °FBroken clouds.10 mph47%30.07 "HgN/A
4:00 PM70 °FBroken clouds.6 mph69%30.09 "HgN/A
3:30 PM66 °FBroken clouds.3 mph78%30.09 "HgN/A
3:00 PM66 °FBroken clouds.3 mph73%30.09 "HgN/A
2:30 PM64 °FBroken clouds.1 mph83%30.09 "HgN/A
2:00 PM61 °FSprinkles. Partly sunny.3 mph94%30.12 "HgN/A
1:30 PM61 °FThunderstorms. Partly sunny.10 mph88%30.12 "Hg3 mi
1:00 PM70 °FThundershowers. Broken clouds.10 mph46%30.09 "HgN/A
12:54 PM70 °FThundershowers. Broken clouds.8 mph53%30.09 "HgN/A
12:30 PM70 °FBroken clouds.8 mph53%30.09 "HgN/A
12:00 PM64 °FSprinkles. Partly sunny.8 mph73%30.09 "HgN/A
11:46 AM70 °FSprinkles. Partly sunny.10 mph53%30.09 "HgN/A
11:30 AM70 °FThundershowers. Partly sunny.6 mph53%30.09 "HgN/A
11:00 AM70 °FPartly sunny.3 mph53%30.09 "HgN/A
10:30 AM68 °FPassing clouds.3 mph56%30.09 "HgN/A
10:00 AM66 °FSunny.1 mph64%30.09 "Hg10 mi
9:30 AM64 °FSunny.6 mph68%30.09 "Hg10 mi
9:00 AM63 °FSunny.3 mph73%30.09 "Hg10 mi
8:30 AM61 °FSunny.No wind83%30.09 "Hg10 mi
8:00 AM61 °FSunny.No wind83%30.09 "Hg10 mi
7:30 AM59 °FSunny.No wind88%30.09 "Hg10 mi
6:30 AM55 °FSunny.No wind94%30.09 "Hg10 mi
6:00 AM55 °FSunny.No wind88%30.07 "Hg10 mi
5:30 AM54 °FClear.No wind88%30.07 "Hg10 mi
5:00 AM52 °FLight fog.No wind88%30.07 "HgN/A
4:30 AM52 °FLight fog.No wind88%30.07 "Hg6 mi
4:00 AM52 °FClear.No wind88%30.07 "Hg10 mi
3:30 AM50 °FClear.No wind94%30.09 "Hg10 mi
3:00 AM52 °FClear.No wind88%30.07 "Hg10 mi
2:30 AM52 °FClear.No wind88%30.07 "Hg10 mi
2:00 AM52 °FClear.No wind94%30.07 "Hg10 mi
Weather by CustomWeather, © 2015

See weather overviewHow to use our weather pages